Regional Weather Roundup
Issued by NWS

Home | Current Version | Previous Version | Graphics & Text | Print | Product List | Glossary On
Versions: 1 2 3 4 5 6 7 8 9 10 11 12 13 14 15 16 17 18 19 20 21 22 23 24 25 26 27 28 29 30 31 32 33 34 35 36 37 38 39 40 41 42 43 44 45 46 47 48 49 50
000
ASUS43 KLOT 020208
RWRIL

ILLINOIS REGIONAL WEATHER ROUNDUP
NATIONAL WEATHER SERVICE CHICAGO/ROMEOVILLE IL
900 PM CDT SUN MAY 01 2016

NOTE: "FAIR" INDICATES FEW OR NO CLOUDS BELOW 12,000 FEET WITH NO
SIGNIFICANT WEATHER AND/OR OBSTRUCTIONS TO VISIBILITY.

* THESE STATIONS ARE NOT UNDER NWS QUALITY CONTROL. THEY ALSO MAY NOT
  REPORT WEATHER SUCH AS PRECIPITATION OR FOG.

ILZ001-002-007-009-015-016-024-020300-
NORTHWEST ILLINOIS

CITY           SKY/WX    TMP DP  RH WIND       PRES   REMARKS
MOLINE         CLOUDY    50  47  89 NW6       30.02R
STERLING*      LGT RAIN  48  48 100 E5        30.02S
SAVANNA*       DRIZZLE   49  48  98 N3        30.02S
$$

ILZ003-004-008-010-011-017-018-020300-
NORTH CENTRAL ILLINOIS

CITY           SKY/WX    TMP DP  RH WIND       PRES   REMARKS
ROCKFORD       LGT RAIN  48  44  86 NE7       30.05R
FREEPORT*      LGT RAIN  47  46  93 CALM      30.05R
ROCHELLE*      RAIN      46  45  96 N6        30.03R
DE KALB*       RAIN      46  46  97 SW8       30.02R
$$

ILZ005-006-012>014-019>023-020300-
NORTHEAST ILLINOIS

CITY           SKY/WX    TMP DP  RH WIND       PRES   REMARKS
CHICAGO-OHARE  LGT RAIN  46  45  96 NE6       30.00R FOG
CHICAGO-MIDWAY LGT RAIN  46  43  89 N9        30.00R
AURORA         CLOUDY    47  45  93 N6        30.00R
LANSING*       TSTM      45  44  98 N8        29.96F
JOLIET*        CLOUDY    48  46  93 N6        29.98F
WAUKEGAN       LGT RAIN  46  45  96 N8        30.00R
DUPAGE AIRPORT RAIN      46  44  93 SW3       29.98S FOG
KANKAKEE*      RAIN      48  47  93 N7        29.96R
WHEELING       RAIN      46  44  93 N5        30.02R FOG
MORRIS*        CLOUDY    47  46  93 N3        29.97R
ROMEOVILLE*    RAIN      46  44  92 E8        29.97F
NORTHERLY ISL    N/A     44  43  96 NW12        N/A
NORTHERLY ISL    N/A     44  43  96 NW12        N/A
$$

LMZ740>746-020300-
SOUTHERN LAKE MICHIGAN

STATION/POSITION SKY/WX   TEMP    WIND        PRES    VSBY  WAVE
                          AIR SEA DIR/SP/G                  HT/PER
                          (F)     (DEG/KT/KT) (MB)    (MI)  (FT/S)
SOUTHERN BUOY              44 40   60/ 14/ 16 1015.1F         2/ 4
HARRISON CRIB              44     360/ 19/ 21   N/A
BURNHAM HARBOR             46      10/ 10/ 16   N/A
CALUMET HARBOR             43                 1013.9R
BURNS HARBOR               47      70/ 13/ 22 1013.9F
MICHIGAN CITY              47      30/ 16/ 17   N/A
ST. JOSEPH                 51 48                N/A           3/ 4
$$

ILZ025>027-034>036-040-047-049-050-058-095>099-020300-
WEST-CENTRAL ILLINOIS

CITY           SKY/WX    TMP DP  RH WIND       PRES   REMARKS
QUINCY         CLOUDY    51  49  92 NW7       30.02R
GALESBURG*     CLOUDY    48  47  97 N10       30.01R
MACOMB*        CLOUDY    50  49  97 N9        30.03R
JACKSONVILLE*  CLOUDY    55  52  88 NW13      29.99R
PITTSFIELD*    CLOUDY    55  51  89 NW10      30.02R
$$

ILZ028>032-037-038-041>044-048-051>054-059>061-020300-
CENTRAL ILLINOIS

CITY           SKY/WX    TMP DP  RH WIND       PRES   REMARKS
PONTIAC        CLOUDY    50  49  97 N8        29.98S
BLOOMINGTON    CLOUDY    51  51 100 N14       29.98R FOG
DECATUR        CLOUDY    57  52  83 NW15G22   29.96R
PEORIA         CLOUDY    50  48  93 N6        29.99R
LACON*         CLOUDY    49  47  95 NE6       29.98S
LINCOLN*       CLOUDY    55  54  97 CALM      29.97R FOG
SPRINGFIELD    MOCLDY    55  53  93 NW6       29.98R FOG
TAYLORVILLE    NOT AVBL
$$

ILZ033-039-045-046-055>057-062-063-020300-
EAST-CENTRAL ILLINOIS

CITY           SKY/WX    TMP DP  RH WIND       PRES   REMARKS
CHAMPAIGN      CLOUDY    56  54  93 N13       29.93R FOG
RANTOUL*       CLOUDY    55  53  94 NW13G20   29.96R FOG
MATTOON        PTCLDY    59  54  83 NW20      29.92R
PARIS*         CLEAR     59  59  99 NW5       29.90S FOG
$$

ILZ079-100>102-020300-
SOUTHWEST ILLINOIS

CITY           SKY/WX    TMP DP  RH WIND       PRES   REMARKS
ALTON          PTCLDY    57  54  88 NW12      29.99R
CAHOKIA*       CLEAR     64  45  49 NW12      29.98R
SPARTA*        PTCLDY    63  51  63 W9        29.97R
$$

ILZ064>066-069>071-074>076-080>082-084>086-088>090-092>094-020300-
SOUTH-CENTRAL ILLINOIS

CITY           SKY/WX    TMP DP  RH WIND       PRES   REMARKS
CARBONDALE     CLEAR     67  52  58 NW13      29.94R
CAIRO*         CLEAR     72  62  71 SW7       29.93R
EFFINGHAM*     CLEAR     61  56  83 W16G23    29.95R
MARION         PTCLDY    70  55  60 NW10G18   29.94R
MT. VERNON     MOCLDY    63  52  67 NW5       29.95R
CENTRALIA*     MOCLDY    62  56  81 NW14G20   29.95R
SALEM*         PTCLDY    62  54  77 NW16G22   29.95R
METROPOLIS*    CLEAR     72  66  82 W5        29.93R
$$

ILZ067-068-072-073-078-083-087-091-020300-
SOUTHEAST ILLINOIS

CITY           SKY/WX    TMP DP  RH WIND       PRES   REMARKS
LAWRENCEVILLE  CLOUDY    64  62  93 NW13      29.89R
FLORA*         MOCLDY    64  55  71 NW18G25   29.93R
FAIRFIELD*     LGT RAIN  64  59  83 NW9G16    29.91R
HARRISBURG*    CLEAR     69  63  79 SW5       29.91R
ROBINSON*      LGT RAIN  66  63  89 W12       29.89R
CARMI*         CLOUDY    67  63  86 W7        29.89R
$$

ABBREVIATIONS USED IN REMARKS
   TC - TEMPERATURE IN CELSIUS
  WCI - WIND CHILL INDEX
   HX - HEAT INDEX
  VSB - VISIBILITY
$$




USA.gov is the U.S. government's official web portal to all federal, state and local government web resources and services.